Regional Weather Roundup
Issued by NWS

Home | Current Version | Previous Version | Text Only | Print | Product List | Glossary Off
Versions: 1 2 3 4 5 6 7 8 9 10 11 12 13 14 15 16 17 18 19 20 21 22 23 24 25 26 27 28 29 30 31 32 33 34 35 36 37 38 39 40 41 42 43 44 45 46 47 48 49 50

000
ASUS43 KLMK 271402
RWRKY
KENTUCKY REGIONAL WEATHER ROUNDUP
NATIONAL WEATHER SERVICE LOUISVILLE KY
1000 AM EDT MON MAR 27 2017

NOTE "FAIR" INDICATES FEW OR NO CLOUDS BELOW 12,000 FEET
WITH NO SIGNIFICANT WEATHER AND/OR OBSTRUCTIONS TO VISIBILITY.

KYZ001>023-026-027-061>063-070>075-271500-
WESTERN AND SOUTH CENTRAL KENTUCKY

CITY           SKY/WX    TMP DP  RH WIND       PRES   REMARKS
PADUCAH        CLOUDY    61  55  81 S7        29.88R
HENDERSON      CLOUDY    54  48  82 E6        29.93F
OWENSBORO      LGT RAIN  53  51  93 CALM      29.98R FOG
HOPKINSVILLE   CLOUDY    60  59  96 S8        29.94R
BOWLING GREEN  CLOUDY    57  54  89 E3        29.98F
GLASGOW        NOT AVBL
$$

KYZ024-025-028>034-038-045-046-053-271500-
NORTH CENTRAL KENTUCKY

CITY           SKY/WX    TMP DP  RH WIND       PRES   REMARKS
LOUISVILLE/SDF CLOUDY    58  50  75 CALM      29.98S
LOUISVILLE/LOU CLOUDY    59  50  72 VRB3      29.99R
FORT KNOX      CLOUDY    55  53  92 E3        29.96S
$$

KYZ035>037-039>044-047>052-055>060-089>105-271500-
NORTHEAST KENTUCKY

CITY           SKY/WX    TMP DP  RH WIND       PRES   REMARKS
LEXINGTON      PTSUNNY   61  53  75 SE6       30.00S
COVINGTON      MOSUNNY   58  51  78 NE3       30.00R
FRANKFORT      PTSUNNY   60  52  74 E3        29.98F
$$

KYZ054-064>069-076>088-106>120-271500-
SOUTHEAST KENTUCKY

CITY           SKY/WX    TMP DP  RH WIND       PRES   REMARKS
JACKSON        SUNNY     62  53  72 CALM      30.02F
LONDON         MOSUNNY   61  53  75 CALM      30.01F
SOMERSET       NOT AVBL
MIDDLESBORO    CLOUDY    57  53  86 CALM      30.06F
MONTICELLO     MOSUNNY   68  59  73 SE7       30.01F
$$




USA.gov is the U.S. government's official web portal to all federal, state and local government web resources and services.